Погода в Черемхово

Россия / Забайкальский край     50°34′46″N   110°09′25″E
темп.,
°C
ветер,
м/с
пор.,
м/с
влажн.,
%
обл.,
%
осадки,
мм/ч
давл.,
гПа
погр.,
м
24 апреля, сб
сб2400:00+1всв1153100 0.0 103725
03:000в225356 0.0 103738
06:00−1в2355100 0.0 103763
09:00+3в2448100 0.0 1036463
12:00+11вюв4534100 0.0 10301211
15:00+14юв4531100 0.0 10251525
18:00+12ююв4537100 0.0 1023991
21:00+7юв2347100 0.0 102565
25 апреля, вс
вс2500:00+7в2239100 0.0 102448
03:00+5вюв2245100 0.0 102265
06:00+4вюв2351100 0.0 1021115
09:00+7в2441100 0.1 1017324
12:00+14ююв3626100 0.0 10121343
15:00+14юз5845100 0.1 10091717
18:00+10з3462100 0.6 10091173
21:00+2з3798100 3.2 1015437
26 апреля, пн
пн2600:000з3796100 1.2 1016419
03:00−1з3794100 1.6 1015525
06:00−2з3793100 0.4 1014514
09:00−1зсз477699 0.6 1014917
12:00+3сз585146 0.1 10121419
15:00+6сз7103883 0.1 10102025
18:00+4сз71041100 0.0 10122088
21:000сз5116148 0.1 10171146
27 апреля, вт
вт2700:00−2зсз51183100 0.1 10191104
03:00−2зсз61287100 0.9 10191226
06:00−3зсз61286100 1.0 10201262
09:00−2зсз71268100 1.6 10221452
12:00+1зсз81150100 0.2 10201902
15:00+2зсз71250100 0.3 10192139
18:00+2зсз71257100 0.3 10192150
21:00−2зсз5117395 0.6 10221194
28 апреля, ср
ср2800:00−4з498980 0.2 1023509
03:00−5з379494 0.3 1023415
06:00−4з3992100 0.2 1022599
09:00−2з487596 0.3 1021937
12:00+4зсз694194 0.1 10171987
15:00+7сз7122959 0.1 10142832
18:00+7сз7113067 0.0 10142678
21:00+1сз410460 0.0 1018563